SCP
0 0 0 0 0 0 0 0 0 0 0 0 0 0 0 0 0 0 0 0 0 0 0 0 0 0 0 0 0 0 0 0 0 0 0 0 0 0 0 0 0 0 0
0 0 0 0 0 0 0 0 0 0 0 0 0 0 0 0 0 0 0 0 0 0 0 0 0 0 0 0 0 0 0 0 0 0 0 0 0 0 0 0 0 0 0
0 0 0 0 0 0 0 0 0 0 0 0 0 0 0 0 0 0 0 0 0 0 0 0 0 0 0 0 0 0 0 0 0 0 0 0 0 0 0 0 0 0 0
0 0 0 0 0 0 0 0 0 0 0 0 0 0 0 0 0 0 0 0 0 0 0 0 0 0 0 0 0 0 0 0 0 0 0 0 0 0 0 0 0 0 0
0 0 0 0 0 0 0 0 0 0 0 0 0 0 0 0 0 0 0 0 0 0 0 0 0 0 0 0 0 0 0 0 0 0 0 0 0 0 0 0 0 0 0
0 0 0 0 0 0 0 0 0 0 0 0 0 0 0 0 0 0 0 0 0 0 0 0 0 0 0 0 0 0 0 0 0 0 0 0 0 0 0 0 -0 -0 -0
0 0 0 0 0 0 0 0 0 0 0 0 0 0 0 0 0 0 0 0 0 0 0 0 0 0 0 0 0 0 0 0 0 0 0 0 0 0 0 0 0 0 0
0 0 0 0 0 0 0 0 0 0 0 0 0 0 0 0 0 0 0 0 0 0 0 0 0 0 0 0 0 0 0 0 0 0 0 0 0 0 0 0 0 0 0
0 0 0 0 0 0 0 0 0 0 0 0 0 0 0 0 0 0 0 0 0 0 0 0 0 0 0 0 0 0 0 0 0 0 0 0 0 0 0 0 0 0 0
0 0 0 0 0 0 0 0 0 0 0 0 0 0 0 0 0 0 0 0 0 0 0 0 0 0 0 0 0 0 0 0 0 0 0 0 0 0 0 0 0 0 0
0 0 0 0 0 0 0 0 0 0 0 0 0 0 0 0 0 0 0 0 0 0 0 0 0 0 0 0 0 0 0 0 0 0 0 0 0 0 0 0 0 0 0
0 0 0 0 0 0 0 0 0 0 0 0 0 0 0 0 0 0 0 0 0 0 0 0 0 0 0 0 0 0 0 0 0 0 0 0 0 0 0 0 0 0 0
0 0 0 0 0 0 0 0 0 0 0 0 0 0 0 0 0 0 0 0 0 0 0 0 0 0 0 0 0 0 0 0 0 0 0 0 0 0 0 0 0 0 0
0 0 0 0 0 0 0 0 0 0 0 0 0 0 0 0 0 0 0 0 0 0 0 0 0 0 0 0 0 0 0 0 0 0 0 0 0 0 0 0 0 0 0
-0 0 0 0 0 0 0 0 0 0 0 0 0 0 0 0 0 0 0 0 0 0 0 0 0 0 0 0 0 0 0 0 0 0 0 0 0 0 0 0 0 0 0
-0 0 0 0 0 0 0 0 0 0 0 0 0 0 0 0 0 0 0 0 0 0 0 0 0 0 0 0 0 0 0 0 0 0 0 0 0 0 0 0 0 0 0
-0 -0 0 0 0 0 0 0 0 0 0 0 0 0 0 0 0 0 0 0 0 0 0 0 0 0 0 0 0 0 0 0 0 0 0 0 0 0 0 0 0 0 0
0 0 0 0 0 0 0 0 0 0 0 0 0 0 0 0 0 0 0 0 0 0 0 0 0 0 0 0 0 0 0 0 0 0 0 0 0 0 0 0 0 0 0
-0 0 0 0 0 0 0 0 0 0 0 0 0 0 0 0 0 0 0 0 0 0 0 0 0 0 0 0 0 0 0 0 0 0 0 0 0 0 0 0 0 0 0
-0 -0 0 0 0 0 0 0 0 0 0 0 0 0 0 0 0 0 0 0 0 0 0 0 0 0 0 0 0 0 0 0 0 0 0 0 0 0 0 0 0 0 0
0 0 0 0 0 0 0 0 0 0 0 0 0 0 0 0 0 0 0 0 0 0 0 0 0 0 0 0 0 0 0 0 0 0 0 0 0 0 0 0 0 0 0
0 0 0 0 0 0 0 0 0 0 0 0 0 0 0 0 0 0 0 0 0 0 0 0 0 0 0 0 0 0 0 0 0 0 0 0 0 0 0 0 0 0 0
0 0 0 0 0 0 0 0 0 0 0 0 0 0 0 0 0 0 0 0 0 0 0 0 0 0 0 0 0 0 0 0 0 0 0 0 0 0 0 0 0 0 0
0 0 0 0 0 0 0 0 0 0 0 0 0 0 0 0 0 0 0 0 0 0 0 0 0 0 0 0 0 0 0 0 0 0 0 0 0 0 0 0 0 0 0
0 0 0 0 0 0 0 0 0 0 0 0 0 0 0 0 0 0 0 0 0 0 0 0 0 0 0 0 0 0 0 0 0 0 0 0 0 0 0 0 0 0 0
0 0 0 0 0 0 0 0 0 0 0 0 0 0 0 0 0 0 0 0 0 0 0 0 0 0 0 0 0 0 0 0 0 0 0 0 0 0 0 0 0 0 0
Wind_Speed_500mb
61 76 81 77 62 67 65 62 69 71 78 78 75 67 42 20 4 8 25 12 22 28 17 10 7 12 15 18 17 18 20 20 18 22 25 30 36 40 42 43 46 47 45
38 59 75 74 73 74 68 50 86 111 83 80 58 30 11 17 9 33 41 28 29 23 19 10 13 15 17 15 16 17 18 20 21 23 27 32 35 39 41 42 41 39 41
44 37 61 72 71 69 71 63 76 62 63 65 17 6 9 9 27 36 34 26 20 17 13 16 17 13 14 14 14 16 17 21 25 27 27 30 33 38 41 43 44 37 37
37 49 41 62 74 78 72 66 60 57 61 49 46 34 41 34 33 43 29 20 21 23 20 14 9 7 9 12 14 17 19 21 23 26 29 30 36 42 46 52 51 45 41
32 36 53 50 65 70 77 76 77 71 69 69 62 62 59 50 38 30 30 27 23 18 13 8 5 6 12 15 16 18 21 24 26 28 31 34 40 46 48 51 54 55 50
32 33 39 52 57 65 80 87 88 88 83 79 68 64 52 45 35 30 23 21 19 14 9 6 2 5 8 11 15 18 21 24 26 29 33 37 39 43 47 51 53 60 54
31 31 34 43 55 66 76 91 91 84 79 70 57 49 43 40 34 24 18 17 14 12 8 3 2 2 5 10 15 20 24 27 31 34 34 38 40 46 47 47 48 49 53
25 28 31 38 48 59 68 67 67 67 61 54 50 43 33 31 28 23 21 16 13 11 8 5 3 3 5 13 18 21 24 27 30 33 33 32 34 41 42 46 48 48 44
20 25 27 34 41 45 51 52 56 51 49 48 39 42 27 32 29 23 20 19 15 13 11 8 3 7 13 18 20 23 24 26 26 27 28 29 32 37 42 41 44 53 53
23 31 37 47 56 58 58 54 53 43 42 36 40 37 35 33 33 28 23 19 16 13 9 4 6 12 19 21 22 23 23 26 27 27 27 30 33 36 38 40 43 46 51
42 51 55 56 56 51 47 46 38 37 39 36 36 37 34 29 28 24 17 15 11 4 4 4 12 20 25 28 28 24 28 31 28 27 30 32 34 34 36 38 40 43 44
51 55 55 53 45 51 45 35 30 33 33 32 34 36 36 34 26 22 17 10 6 2 4 10 17 24 28 30 30 32 33 31 29 28 30 32 33 34 36 37 37 36 37
63 55 49 46 37 42 42 36 33 29 30 37 39 38 34 30 25 19 10 7 3 3 9 16 21 22 26 29 31 34 34 33 34 33 30 31 33 36 37 36 33 32 32
56 57 50 46 38 35 31 26 28 30 32 33 32 28 26 25 20 15 12 7 6 11 15 19 22 25 26 30 32 33 36 37 36 34 34 34 34 32 33 36 40 41 40
30 29 26 26 26 28 29 27 27 28 28 26 24 21 20 18 15 11 10 12 14 16 19 21 24 26 29 31 33 35 36 36 34 34 33 32 30 29 31 34 37 41 46
20 21 22 23 22 21 23 30 31 31 31 29 26 22 19 17 15 18 20 19 20 22 22 23 27 30 31 32 34 33 33 35 35 32 30 28 29 30 33 34 37 40 47
14 13 14 11 12 15 22 21 20 27 26 24 24 23 22 23 29 31 28 26 26 25 25 31 32 32 31 32 33 33 34 33 30 28 27 27 29 31 33 35 38 41 43
23 21 19 17 18 16 15 16 20 25 24 25 26 27 30 35 37 35 30 28 26 29 32 32 31 31 31 32 32 33 31 30 27 25 23 26 31 34 33 34 37 42 45
15 12 10 11 13 16 20 23 25 26 27 30 32 34 35 35 36 35 36 32 34 34 32 31 31 30 29 30 31 31 29 26 24 23 23 27 31 34 33 36 40 41 47
20 18 18 18 21 22 24 26 28 29 31 33 35 38 40 39 39 35 30 32 32 32 33 30 29 29 30 31 30 27 23 22 23 25 27 29 32 35 38 42 44 48 49
25 25 27 30 32 32 31 30 29 31 34 36 37 40 42 41 41 41 38 36 34 32 30 29 29 30 31 29 24 21 20 21 23 27 30 32 35 37 39 42 44 44 48
33 34 36 39 37 36 32 30 32 35 38 41 41 43 47 46 44 41 39 37 33 30 28 28 28 29 26 22 20 20 20 21 26 33 36 38 40 43 45 45 45 45 46
40 40 40 36 33 32 31 32 36 38 41 42 42 45 48 41 39 38 36 33 31 29 29 27 27 26 20 18 18 20 22 26 32 38 41 43 46 48 49 48 47 46 49
41 38 33 31 30 29 32 36 38 41 41 43 43 42 41 40 38 34 33 31 28 28 24 23 21 17 15 17 20 24 29 33 37 41 46 49 52 53 52 47 45 42 51
35 34 31 29 31 36 41 42 40 43 43 40 37 38 39 39 37 34 31 28 27 23 20 17 13 13 15 18 23 29 33 38 42 44 48 51 52 49 41 40 40 53 53
30 27 28 33 38 41 42 42 44 41 38 36 34 35 34 34 33 31 28 27 21 18 15 12 12 15 19 24 29 32 37 42 45 46 49 48 46 39 41 50 54 51 58
Wind_Direction_500mb
222 235 235 232 241 246 238 238 232 230 231 232 224 207 172 122 201 191 248 213 239 237 227 229 245 243 244 251 268 285 296 301 286 286 294 300 303 302 302 308 311 315 315
227 218 232 236 236 239 227 243 235 233 218 214 162 119 159 39 281 235 228 209 216 210 203 196 223 229 251 267 285 297 302 305 308 311 308 308 314 313 314 314 315 322 322
255 238 221 228 231 231 228 255 251 235 206 154 152 148 66 63 220 220 219 210 191 197 196 203 221 245 280 294 303 305 308 315 318 319 320 319 318 319 321 325 329 337 334
264 248 243 222 222 233 233 231 221 209 192 196 200 193 185 189 207 207 192 175 182 191 191 194 218 246 280 294 308 313 319 320 322 322 326 330 331 329 332 333 334 342 345
269 250 242 244 231 224 232 222 218 210 201 196 193 189 189 178 176 174 165 173 186 195 190 191 226 277 303 321 326 326 331 329 331 328 331 336 334 333 338 339 337 341 350
272 258 243 238 234 227 215 214 202 196 192 188 184 178 174 162 158 159 166 174 181 181 174 156 94 357 340 334 334 331 333 337 336 340 339 339 338 335 335 338 338 342 348
271 259 244 234 228 223 199 196 188 187 181 177 164 151 146 143 150 157 166 180 174 172 159 138 116 15 355 355 349 348 345 344 345 344 344 340 335 330 333 332 337 339 338
262 250 236 226 217 208 199 182 175 167 160 149 137 131 147 148 158 176 185 178 163 148 142 139 117 86 38 19 5 353 348 345 341 336 331 330 327 328 333 332 330 329 331
235 221 210 204 191 177 164 156 144 134 130 134 145 147 167 167 158 161 165 165 167 158 145 141 105 37 9 5 359 344 340 336 333 330 334 335 332 326 324 323 324 332 339
180 168 162 155 149 149 144 136 131 141 136 152 151 144 162 155 147 156 166 158 153 144 132 104 20 4 345 338 337 333 337 335 335 335 333 330 327 321 321 328 334 338 340
145 139 139 134 131 132 131 126 132 149 148 165 148 143 156 150 156 154 159 161 130 111 64 357 351 338 326 328 335 340 340 337 332 329 329 325 320 319 325 333 337 339 336
140 137 130 122 130 134 135 139 152 159 154 147 159 157 163 160 160 163 170 150 120 106 334 332 331 325 326 333 336 335 334 330 329 330 327 319 316 322 326 330 332 333 336
126 123 131 132 135 131 131 136 163 166 169 171 176 174 170 168 168 171 170 192 190 303 320 316 314 322 328 326 328 328 330 326 327 329 321 318 321 325 327 324 324 329 338
135 138 147 142 139 154 159 166 168 177 181 184 183 177 173 181 182 188 194 221 290 300 306 312 316 322 316 317 321 323 320 320 321 321 320 321 324 324 325 327 331 333 334
144 151 156 158 173 175 173 177 179 186 193 197 192 194 196 197 202 218 250 269 283 293 307 306 308 308 306 307 311 314 314 314 314 316 317 321 324 329 333 334 337 341 349
176 176 177 180 182 183 191 190 188 189 200 197 198 206 218 228 248 254 265 276 279 293 300 298 289 290 295 305 309 307 307 306 309 314 318 321 327 333 335 338 340 346 348
171 176 183 185 205 205 205 207 209 211 215 217 222 229 240 259 261 267 276 280 286 293 289 280 281 288 299 303 300 299 299 302 309 316 318 324 329 333 331 336 342 344 342
184 183 192 201 205 211 220 225 226 227 232 234 242 252 258 262 263 268 277 279 280 278 276 280 285 291 293 292 292 295 302 307 310 312 319 327 325 325 328 332 337 337 336
212 213 224 238 245 247 245 244 245 250 252 253 255 260 264 266 264 267 273 274 270 270 274 277 279 283 288 290 294 300 300 299 301 309 321 323 319 320 323 323 325 327 327
230 237 249 259 262 263 264 265 264 264 266 270 270 267 263 260 263 271 268 265 268 269 269 273 280 287 289 292 294 293 293 298 306 315 318 316 316 319 322 321 321 320 324
245 252 261 266 269 270 269 270 272 266 265 265 266 264 262 259 260 260 262 263 261 262 267 275 281 286 287 290 291 294 297 301 309 313 313 314 317 321 320 317 317 317 321
255 263 268 273 271 267 266 267 266 264 262 260 260 258 258 256 255 256 255 254 256 260 264 271 281 284 286 286 287 291 302 310 310 308 309 311 316 318 318 318 316 314 316
257 261 267 265 257 251 252 260 262 262 261 261 260 258 256 257 250 248 246 245 248 253 263 274 278 279 278 280 289 300 308 311 308 307 309 313 315 316 316 314 315 313 313
261 258 252 247 249 256 258 259 260 261 262 266 263 255 250 247 244 241 238 240 244 256 264 267 267 267 276 289 299 305 307 307 308 310 310 311 312 314 313 313 315 314 315
250 246 244 244 247 252 257 261 266 272 270 264 255 245 238 235 234 233 233 237 250 255 259 257 254 262 277 291 298 300 301 305 309 310 309 307 308 312 314 314 312 314 314
237 232 240 252 261 268 271 273 275 271 264 257 248 239 233 229 226 224 231 241 245 246 237 237 253 277 292 298 299 303 306 308 308 306 310 312 312 315 317 315 313 313 316
Wind_Speed_850mb
61 76 81 77 62 67 65 62 69 71 78 78 75 67 42 20 4 8 25 12 22 28 17 10 7 12 15 18 17 18 20 20 18 22 25 30 36 40 42 43 46 47 45
38 59 75 74 73 74 68 50 86 111 83 80 58 30 11 17 9 33 41 28 29 23 19 10 13 15 17 15 16 17 18 20 21 23 27 32 35 39 41 42 41 39 41
44 37 61 72 71 69 71 63 76 62 63 65 17 6 9 9 27 36 34 26 20 17 13 16 17 13 14 14 14 16 17 21 25 27 27 30 33 38 41 43 44 37 37
37 49 41 62 74 78 72 66 60 57 61 49 46 34 41 34 33 43 29 20 21 23 20 14 9 7 9 12 14 17 19 21 23 26 29 30 36 42 46 52 51 45 41
32 36 53 50 65 70 77 76 77 71 69 69 62 62 59 50 38 30 30 27 23 18 13 8 5 6 12 15 16 18 21 24 26 28 31 34 40 46 48 51 54 55 50
32 33 39 52 57 65 80 87 88 88 83 79 68 64 52 45 35 30 23 21 19 14 9 6 2 5 8 11 15 18 21 24 26 29 33 37 39 43 47 51 53 60 54
31 31 34 43 55 66 76 91 91 84 79 70 57 49 43 40 34 24 18 17 14 12 8 3 2 2 5 10 15 20 24 27 31 34 34 38 40 46 47 47 48 49 53
25 28 31 38 48 59 68 67 67 67 61 54 50 43 33 31 28 23 21 16 13 11 8 5 3 3 5 13 18 21 24 27 30 33 33 32 34 41 42 46 48 48 44
20 25 27 34 41 45 51 52 56 51 49 48 39 42 27 32 29 23 20 19 15 13 11 8 3 7 13 18 20 23 24 26 26 27 28 29 32 37 42 41 44 53 53
23 31 37 47 56 58 58 54 53 43 42 36 40 37 35 33 33 28 23 19 16 13 9 4 6 12 19 21 22 23 23 26 27 27 27 30 33 36 38 40 43 46 51
42 51 55 56 56 51 47 46 38 37 39 36 36 37 34 29 28 24 17 15 11 4 4 4 12 20 25 28 28 24 28 31 28 27 30 32 34 34 36 38 40 43 44
51 55 55 53 45 51 45 35 30 33 33 32 34 36 36 34 26 22 17 10 6 2 4 10 17 24 28 30 30 32 33 31 29 28 30 32 33 34 36 37 37 36 37
63 55 49 46 37 42 42 36 33 29 30 37 39 38 34 30 25 19 10 7 3 3 9 16 21 22 26 29 31 34 34 33 34 33 30 31 33 36 37 36 33 32 32
56 57 50 46 38 35 31 26 28 30 32 33 32 28 26 25 20 15 12 7 6 11 15 19 22 25 26 30 32 33 36 37 36 34 34 34 34 32 33 36 40 41 40
30 29 26 26 26 28 29 27 27 28 28 26 24 21 20 18 15 11 10 12 14 16 19 21 24 26 29 31 33 35 36 36 34 34 33 32 30 29 31 34 37 41 46
20 21 22 23 22 21 23 30 31 31 31 29 26 22 19 17 15 18 20 19 20 22 22 23 27 30 31 32 34 33 33 35 35 32 30 28 29 30 33 34 37 40 47
14 13 14 11 12 15 22 21 20 27 26 24 24 23 22 23 29 31 28 26 26 25 25 31 32 32 31 32 33 33 34 33 30 28 27 27 29 31 33 35 38 41 43
23 21 19 17 18 16 15 16 20 25 24 25 26 27 30 35 37 35 30 28 26 29 32 32 31 31 31 32 32 33 31 30 27 25 23 26 31 34 33 34 37 42 45
15 12 10 11 13 16 20 23 25 26 27 30 32 34 35 35 36 35 36 32 34 34 32 31 31 30 29 30 31 31 29 26 24 23 23 27 31 34 33 36 40 41 47
20 18 18 18 21 22 24 26 28 29 31 33 35 38 40 39 39 35 30 32 32 32 33 30 29 29 30 31 30 27 23 22 23 25 27 29 32 35 38 42 44 48 49
25 25 27 30 32 32 31 30 29 31 34 36 37 40 42 41 41 41 38 36 34 32 30 29 29 30 31 29 24 21 20 21 23 27 30 32 35 37 39 42 44 44 48
33 34 36 39 37 36 32 30 32 35 38 41 41 43 47 46 44 41 39 37 33 30 28 28 28 29 26 22 20 20 20 21 26 33 36 38 40 43 45 45 45 45 46
40 40 40 36 33 32 31 32 36 38 41 42 42 45 48 41 39 38 36 33 31 29 29 27 27 26 20 18 18 20 22 26 32 38 41 43 46 48 49 48 47 46 49
41 38 33 31 30 29 32 36 38 41 41 43 43 42 41 40 38 34 33 31 28 28 24 23 21 17 15 17 20 24 29 33 37 41 46 49 52 53 52 47 45 42 51
35 34 31 29 31 36 41 42 40 43 43 40 37 38 39 39 37 34 31 28 27 23 20 17 13 13 15 18 23 29 33 38 42 44 48 51 52 49 41 40 40 53 53
30 27 28 33 38 41 42 42 44 41 38 36 34 35 34 34 33 31 28 27 21 18 15 12 12 15 19 24 29 32 37 42 45 46 49 48 46 39 41 50 54 51 58
Wind_Direction_850mb
222 235 235 232 241 246 238 238 232 230 231 232 224 207 172 122 201 191 248 213 239 237 227 229 245 243 244 251 268 285 296 301 286 286 294 300 303 302 302 308 311 315 315
227 218 232 236 236 239 227 243 235 233 218 214 162 119 159 39 281 235 228 209 216 210 203 196 223 229 251 267 285 297 302 305 308 311 308 308 314 313 314 314 315 322 322
255 238 221 228 231 231 228 255 251 235 206 154 152 148 66 63 220 220 219 210 191 197 196 203 221 245 280 294 303 305 308 315 318 319 320 319 318 319 321 325 329 337 334
264 248 243 222 222 233 233 231 221 209 192 196 200 193 185 189 207 207 192 175 182 191 191 194 218 246 280 294 308 313 319 320 322 322 326 330 331 329 332 333 334 342 345
269 250 242 244 231 224 232 222 218 210 201 196 193 189 189 178 176 174 165 173 186 195 190 191 226 277 303 321 326 326 331 329 331 328 331 336 334 333 338 339 337 341 350
272 258 243 238 234 227 215 214 202 196 192 188 184 178 174 162 158 159 166 174 181 181 174 156 94 357 340 334 334 331 333 337 336 340 339 339 338 335 335 338 338 342 348
271 259 244 234 228 223 199 196 188 187 181 177 164 151 146 143 150 157 166 180 174 172 159 138 116 15 355 355 349 348 345 344 345 344 344 340 335 330 333 332 337 339 338
262 250 236 226 217 208 199 182 175 167 160 149 137 131 147 148 158 176 185 178 163 148 142 139 117 86 38 19 5 353 348 345 341 336 331 330 327 328 333 332 330 329 331
235 221 210 204 191 177 164 156 144 134 130 134 145 147 167 167 158 161 165 165 167 158 145 141 105 37 9 5 359 344 340 336 333 330 334 335 332 326 324 323 324 332 339
180 168 162 155 149 149 144 136 131 141 136 152 151 144 162 155 147 156 166 158 153 144 132 104 20 4 345 338 337 333 337 335 335 335 333 330 327 321 321 328 334 338 340
145 139 139 134 131 132 131 126 132 149 148 165 148 143 156 150 156 154 159 161 130 111 64 357 351 338 326 328 335 340 340 337 332 329 329 325 320 319 325 333 337 339 336
140 137 130 122 130 134 135 139 152 159 154 147 159 157 163 160 160 163 170 150 120 106 334 332 331 325 326 333 336 335 334 330 329 330 327 319 316 322 326 330 332 333 336
126 123 131 132 135 131 131 136 163 166 169 171 176 174 170 168 168 171 170 192 190 303 320 316 314 322 328 326 328 328 330 326 327 329 321 318 321 325 327 324 324 329 338
135 138 147 142 139 154 159 166 168 177 181 184 183 177 173 181 182 188 194 221 290 300 306 312 316 322 316 317 321 323 320 320 321 321 320 321 324 324 325 327 331 333 334
144 151 156 158 173 175 173 177 179 186 193 197 192 194 196 197 202 218 250 269 283 293 307 306 308 308 306 307 311 314 314 314 314 316 317 321 324 329 333 334 337 341 349
176 176 177 180 182 183 191 190 188 189 200 197 198 206 218 228 248 254 265 276 279 293 300 298 289 290 295 305 309 307 307 306 309 314 318 321 327 333 335 338 340 346 348
171 176 183 185 205 205 205 207 209 211 215 217 222 229 240 259 261 267 276 280 286 293 289 280 281 288 299 303 300 299 299 302 309 316 318 324 329 333 331 336 342 344 342
184 183 192 201 205 211 220 225 226 227 232 234 242 252 258 262 263 268 277 279 280 278 276 280 285 291 293 292 292 295 302 307 310 312 319 327 325 325 328 332 337 337 336
212 213 224 238 245 247 245 244 245 250 252 253 255 260 264 266 264 267 273 274 270 270 274 277 279 283 288 290 294 300 300 299 301 309 321 323 319 320 323 323 325 327 327
230 237 249 259 262 263 264 265 264 264 266 270 270 267 263 260 263 271 268 265 268 269 269 273 280 287 289 292 294 293 293 298 306 315 318 316 316 319 322 321 321 320 324
245 252 261 266 269 270 269 270 272 266 265 265 266 264 262 259 260 260 262 263 261 262 267 275 281 286 287 290 291 294 297 301 309 313 313 314 317 321 320 317 317 317 321
255 263 268 273 271 267 266 267 266 264 262 260 260 258 258 256 255 256 255 254 256 260 264 271 281 284 286 286 287 291 302 310 310 308 309 311 316 318 318 318 316 314 316
257 261 267 265 257 251 252 260 262 262 261 261 260 258 256 257 250 248 246 245 248 253 263 274 278 279 278 280 289 300 308 311 308 307 309 313 315 316 316 314 315 313 313
261 258 252 247 249 256 258 259 260 261 262 266 263 255 250 247 244 241 238 240 244 256 264 267 267 267 276 289 299 305 307 307 308 310 310 311 312 314 313 313 315 314 315
250 246 244 244 247 252 257 261 266 272 270 264 255 245 238 235 234 233 233 237 250 255 259 257 254 262 277 291 298 300 301 305 309 310 309 307 308 312 314 314 312 314 314
237 232 240 252 261 268 271 273 275 271 264 257 248 239 233 229 226 224 231 241 245 246 237 237 253 277 292 298 299 303 306 308 308 306 310 312 312 315 317 315 313 313 316